Location: The Saddle
(36.8333°N, 80.3417°W)
Time: 06:25:24
(UTC-04:00)

Courier 1B - Pass Details

Date: 21 September 2024
Orbit: 962 x 1208 km, 28.3° (Epoch: 05 October)

Event Time Altitude Azimuth Distance (km) Brightness Sun altitude
Rises 16:36:53 0° 264° (W) 3,826 11.6 30.6°
Reaches altitude 10° 16:39:48 10° 255° (WSW) 2,909 11.5 30.1°
Maximum altitude 16:46:07 34° 194° (SSW) 1,753 9.7 29.0°
Drops below altitude 10° 16:52:46 10° 132° (SE) 3,062 9.9 27.8°
Sets 16:55:56 0° 124° (ESE) 4,053 10.4 27.2°
